{"data":{"norad_id":68549,"intl_designator":"2026-070H","name":"STARLINK-36204","alt_names":[],"object_type":"PAYLOAD","status":"ACTIVE","operator":null,"country":"US","launch_date":"2026-04-02","launch_site_code":"AFETR","launch_vehicle":null,"mission":null,"orbit_class":"UNKNOWN","rcs_meters":null,"size_class":null,"mass_kg":null,"dimensions":null,"purposes":["comms"],"wikipedia_slug":null,"has_3d_model":false,"image_url":null,"decayed_at":null,"tle_current":{"epoch":"2026-09-20T03:49:12.510048Z","epoch_age_seconds":74182,"freshness":"FRESH","line1":"1 68549U 26070H   26263.15917257  .00017137  00000+0  51709-3 0  9996","line2":"2 68549  53.1596 175.4163 0000672  93.7626 266.3453 15.34404330 26383","mean_motion":15.3440433,"eccentricity":6.72e-5,"inclination_deg":53.1596,"raan_deg":175.4163,"arg_perigee_deg":93.7626,"mean_anomaly_deg":266.3453,"bstar":0.00051709,"rev_number":2638,"period_min":93.847493248406,"perigee_km":462.23066696556,"apogee_km":463.15007416416,"semimajor_km":6840.8273705649,"source":"CELESTRAK","updated_at":"2026-09-20T09:00:43.933261Z"}}}